GW1129 Weather Reports


time (UTC)temp
C
wind
direction
speed
KPH
gust
KPH
rain 1hr
cm
rain 24hr
cm
rain mn
cm
humidity
%
barometer
mb
20260507070137 11 0 1.6 8.0 0.00 0.53 0.18 35 1010.9
20260507064600 11 0 0.0 8.0 0.00 0.53 0.18 39 1010.9
20260507063102 11 0 0.0 8.0 0.03 0.53 0.18 39 1011.0
20260507061600 11 0 0.0 4.8 0.05 0.53 0.18 35 1010.9
20260507054620 12 0 1.6 6.4 0.18 0.53 0.18 40 1010.9
20260507053104 12 0 0.0 4.8 0.15 0.51 0.15 39 1011.1
20260507051558 12 0 0.0 12.9 0.13 0.48 0.13 49 1010.7
20260507050104 13 347 1.6 14.5 0.08 0.43 0.08 61 1010.7
20260507044604 13 257 1.6 8.0 0.00 0.36 0.00 68 1010.2
20260507043057 14 269 3.2 6.4 0.00 0.36 0.00 70 1010.5
20260507041558 14 23 0.0 8.0 0.00 0.36 0.00 71 1010.1
20260507040058 15 222 1.6 14.5 0.00 0.36 0.00 72 1010.1
20260507034602 15 210 1.6 8.0 0.00 0.36 0.36 72 1010.4
20260507033056 15 244 3.2 14.5 0.00 0.36 0.36 71 1010.2
20260507031556 16 0 0.0 9.7 0.00 0.36 0.36 69 1009.8
20260507030106 16 236 0.0 6.4 0.00 0.36 0.36 54 1010.1
20260507024621 16 257 1.6 9.7 0.00 0.36 0.36 54 1009.5
20260507023100 16 0 0.0 3.2 0.00 0.36 0.36 49 1009.3
20260507021616 17 0 1.6 11.3 0.00 0.36 0.36 46 1009.4
20260507020106 17 260 0.0 4.8 0.00 0.36 0.36 31 1009.6
20260507014614 17 0 0.0 1.6 0.00 0.36 0.36 41 1009.5
20260507013056 17 196 0.0 3.2 0.00 0.36 0.36 51 1009.7
20260507011556 17 0 1.6 4.8 0.00 0.36 0.36 58 1009.4
20260507010111 17 0 0.0 3.2 0.00 0.36 0.36 59 1009.4
20260507004556 17 0 0.0 0.0 0.00 0.36 0.36 60 1009.2
20260507003057 17 0 0.0 1.6 0.00 0.36 0.36 60 1009.1
20260507001605 17 0 1.6 6.4 0.00 0.36 0.36 59 1009.3
20260507000055 17 0 0.0 0.0 0.00 0.36 0.36 62 1008.7
20260506234558 17 0 0.0 3.2 0.00 0.36 0.36 65 1008.6
20260506233058 18 0 0.0 4.8 0.00 0.36 0.36 69 1008.4
20260506231557 18 89 0.0 8.0 0.00 0.36 0.36 69 1008.6
20260506230104 18 0 0.0 0.0 0.00 0.36 0.36 70 1008.8
20260506224557 18 152 1.6 9.7 0.00 0.36 0.36 71 1008.6
20260506223056 18 0 1.6 4.8 0.00 0.36 0.36 72 1008.6
20260506221556 18 109 1.6 8.0 0.00 0.36 0.36 73 1008.6
20260506220058 18 96 1.6 16.1 0.00 0.36 0.36 74 1008.6
20260506214555 18 165 4.8 11.3 0.00 0.36 0.36 74 1008.4
20260506213055 18 98 3.2 11.3 0.00 0.36 0.36 75 1008.3
20260506211557 19 136 3.2 17.7 0.00 0.36 0.36 74 1008.1
20260506210058 19 105 3.2 9.7 0.00 0.36 0.36 74 1008.1
20260506204557 18 84 3.2 11.3 0.00 0.36 0.36 75 1008.2
20260506203059 19 90 4.8 14.5 0.00 0.36 0.36 75 1008.0
20260506201620 20 229 3.2 17.7 0.00 0.36 0.36 75 1008.0
20260506194602 19 181 6.4 14.5 0.00 0.36 0.36 75 1007.9
20260506193106 18 129 6.4 24.1 0.00 0.36 0.36 72 1008.0
20260506191558 17 203 4.8 16.1 0.00 0.36 0.36 40 1008.3
20260506190100 17 184 6.4 17.7 0.00 0.36 0.36 5 1008.6
20260506184603 16 163 6.4 16.1 0.00 0.36 0.36 5 1008.6
20260506183101 16 221 4.8 14.5 0.00 0.36 0.36 5 1008.6
20260506181609 16 0 4.8 16.1 0.00 0.36 0.36 5 1009.1
20260506180057 16 176 4.8 14.5 0.00 0.36 0.36 6 1009.0
20260506174559 15 252 3.2 11.3 0.00 0.36 0.36 7 1009.0
20260506173128 15 84 6.4 14.5 0.00 0.36 0.36 7 1008.9
20260506171558 15 167 4.8 24.1 0.00 0.36 0.36 7 1009.1
20260506170147 15 104 4.8 17.7 0.00 0.36 0.36 7 1009.3
20260506164604 15 93 6.4 17.7 0.00 0.36 0.36 8 1009.3
20260506163109 15 70 8.0 25.7 0.03 0.36 0.36 10 1009.4
20260506161605 15 100 9.7 25.7 0.08 0.36 0.36 13 1009.5
20260506154605 15 175 6.4 22.5 0.18 0.36 0.36 22 1009.5
20260506153058 15 242 4.8 19.3 0.18 0.33 0.33 32 1010.1
20260506151558 15 195 6.4 19.3 0.18 0.28 0.28 40 1010.4
20260506150058 15 0 6.4 17.7 0.13 0.20 0.20 41 1010.4
20260506144559 15 0 4.8 14.5 0.15 0.18 0.18 43 1010.1
20260506143057 15 174 6.4 16.1 0.15 0.15 0.15 48 1010.1
20260506141558 15 84 4.8 16.1 0.10 0.10 0.10 54 1010.4
20260506134602 16 92 4.8 14.5 0.03 0.03 0.03 68 1010.4
20260506133102 16 120 4.8 16.1 0.00 0.00 0.00 73 1010.5
20260506131557 16 89 4.8 17.7 0.00 0.00 0.00 74 1010.1
20260506130055 16 94 4.8 16.1 0.00 0.00 0.00 73 1010.2
20260506124600 16 212 4.8 17.7 0.00 0.00 0.00 74 1010.4
20260506123057 16 108 3.2 20.9 0.00 0.00 0.00 75 1010.4
20260506121604 16 117 6.4 20.9 0.00 0.00 0.00 75 1010.6
20260506120111 17 151 8.0 22.5 0.00 0.00 0.00 75 1010.5
20260506114614 17 154 4.8 24.1 0.00 0.00 0.00 75 1010.2
20260506113057 16 176 9.7 22.5 0.00 0.00 0.00 75 1010.0
20260506111558 16 97 8.0 20.9 0.00 0.00 0.00 75 1010.0
20260506110058 16 200 8.0 17.7 0.00 0.00 0.00 75 1009.9
20260506104558 16 188 6.4 24.1 0.00 0.00 0.00 75 1009.9
20260506103057 16 79 11.3 29.0 0.00 0.00 0.00 75 1009.7
20260506101555 16 106 9.7 22.5 0.00 0.00 0.00 75 1009.7
20260506100059 16 135 3.2 20.9 0.00 0.00 0.00 75 1009.8
20260506094556 16 165 6.4 22.5 0.00 0.00 0.00 75 1009.8
20260506093111 16 77 8.0 20.9 0.00 0.00 0.00 75 1009.7
20260506091556 17 77 9.7 24.1 0.00 0.00 0.00 75 1009.8
20260506090126 17 144 9.7 22.5 0.00 0.00 0.00 75 1010.0
20260506084557 17 64 9.7 24.1 0.00 0.00 0.00 75 1010.1
20260506083100 17 96 12.9 27.4 0.00 0.00 0.00 75 1009.9
20260506081559 17 165 9.7 27.4 0.00 0.00 0.00 75 1010.0
20260506080110 17 89 8.0 22.5 0.00 0.00 0.00 74 1009.9
20260506073107 18 250 6.4 22.5 0.00 0.00 0.00 73 1010.1
20260506071600 18 180 8.0 20.9 0.00 0.00 0.00 71 1010.2